[[{"header":{"parameterUnit":"m.s-1","parameterCategory":1,"la1":30.2991,"la2":30.254,"lo1":-89.0895,"lo2":-89.0444,"dy":0.0017,"dx":0.0017,"nx":28,"ny":28,"refTime":"2024-02-22T09:00:00:Z","depth":0,"parameterNumber":2,"parameterNumberName":"U-component_of_WINDS"},"data":[0,0,0,0,0,0,0,0,0,0,0,0,0,0,0,0,0,0,0,0,0,0,0,0,0,0,0,0,0,0,0,0,0,0,0,0,0,0,0,0,0,0,0,0,0,0,0,0,0,0,0,0,0,0,0,0,0,0,-0.9178,-0.9178,0,-0.9195,-0.9195,-0.9196,-0.9201,-0.9201,-0.9201,-0.9201,-0.922,-0.922,-0.9221,0,0,0,0,0,0,0,0,0,0,0,0,0,-0.9149,-0.9149,-0.9178,-0.9178,-0.9178,-0.9195,-0.9195,-0.9196,-0.9201,-0.9201,-0.9201,-0.9201,-0.9219,-0.922,-0.9221,0,0,0,0,0,0,0,0,0,0,0,0,0,-0.9163,-0.9149,-0.9177,-0.9183,-0.9183,-0.9195,-0.9195,-0.9196,-0.9201,-0.9201,-0.9201,-0.9201,-0.9219,-0.922,-0.9221,-0.9229,0,0,-0.9223,-0.9224,0,0,0,0,0,0,0,0,-0.9162,-0.9164,-0.9182,-0.9182,-0.9183,-0.9196,-0.9192,-0.9207,-0.9201,-0.9194,-0.9201,-0.9201,-0.9212,-0.9213,-0.9217,-0.923,-0.9231,-0.9224,-0.9224,-0.9224,-0.9225,0,0,0,0,0,0,0,-0.9161,-0.9164,-0.9185,-0.9182,-0.9183,-0.9184,-0.9186,-0.9195,-0.9204,-0.9195,-0.9195,-0.9197,-0.9212,-0.9216,-0.9217,-0.9231,-0.9224,-0.9224,-0.9225,-0.9225,-0.925,-0.9251,0,0,0,0,0,0,-0.9159,-0.9163,-0.9184,-0.9185,-0.9172,-0.9185,-0.9187,-0.9192,-0.9204,-0.9205,-0.9197,-0.9198,-0.9215,-0.9216,-0.9218,-0.9228,-0.9224,-0.9225,-0.9226,-0.925,-0.925,-0.9251,0,0,0,0,0,0,-0.9159,-0.9161,-0.9183,-0.9174,-0.9177,-0.9186,-0.9191,-0.9192,-0.9196,-0.9205,-0.9207,-0.92,-0.9215,-0.9217,-0.9226,-0.9228,-0.9226,-0.9226,-0.925,-0.925,-0.9251,-0.9247,0,0,0,0,0,0,-0.9158,-0.9161,-0.9164,-0.9174,-0.9177,-0.9191,-0.9191,-0.9193,-0.9198,-0.9198,-0.9208,-0.921,-0.9215,-0.9225,-0.9227,-0.923,-0.9227,-0.925,-0.925,-0.925,-0.9247,-0.9248,-0.9248,0,0,0,0,0,-0.9157,-0.9163,-0.9164,-0.9167,-0.9181,-0.9191,-0.9193,-0.9198,-0.9198,-0.9201,-0.9207,-0.9209,-0.9228,-0.9225,-0.9228,-0.9231,-0.925,-0.925,-0.925,-0.9247,-0.9247,-0.9248,0,0,0,0,0,0,-0.9154,-0.9164,-0.9166,-0.9175,-0.9182,-0.9192,-0.9196,-0.9198,-0.9206,-0.9206,-0.9212,-0.9215,-0.9223,-0.9228,-0.9225,-0.9239,-0.9239,-0.924,-0.9236,-0.9236,-0.9236,-0.9235,-0.9228,0,0,0,0,0,-0.9154,-0.916,-0.917,-0.9177,-0.918,-0.9188,-0.9192,-0.9195,-0.9203,-0.9206,-0.9212,-0.922,-0.9227,-0.9232,-0.9239,-0.9248,-0.925,-0.9251,-0.9252,-0.9252,-0.9252,-0.9257,-0.9257,-0.9252,-0.9252,-0.9252,0,0,-0.9155,-0.9161,-0.9165,-0.9176,-0.9182,-0.9189,-0.919,-0.9197,-0.9202,-0.9207,-0.9216,-0.9221,-0.9229,-0.9238,-0.9242,-0.9243,-0.9254,-0.9252,-0.9252,-0.9253,-0.9257,-0.9258,-0.9258,-0.9252,-0.9252,-0.9252,0,0,-0.9159,-0.9165,-0.9172,-0.9177,-0.9186,-0.919,-0.9192,-0.9201,-0.9204,-0.9213,-0.9217,-0.9223,-0.9236,-0.9241,-0.9246,-0.9252,-0.9254,-0.9254,-0.9255,-0.926,-0.926,-0.926,-0.9262,-0.9263,-0.9255,-0.9255,-0.9255,0,-0.9159,-0.917,-0.9175,-0.9182,-0.9186,-0.919,-0.9197,-0.9202,-0.9213,-0.9216,-0.9216,-0.9231,-0.9237,-0.9247,-0.9249,-0.9252,-0.9254,-0.9253,-0.9259,-0.926,-0.926,-0.9262,-0.9263,-0.9255,-0.9255,-0.9255,-0.9255,0,-0.9169,-0.9176,-0.918,-0.9189,-0.9195,-0.9201,-0.9207,-0.9212,-0.9215,-0.922,-0.9228,-0.9236,-0.9244,-0.9247,-0.925,-0.9257,-0.9257,-0.9258,-0.9258,-0.9261,-0.9263,-0.9263,-0.9255,-0.9255,-0.9255,-0.9255,0,0,-0.9172,-0.9184,-0.9185,-0.9189,-0.9199,-0.9204,-0.9211,-0.9219,-0.9223,-0.923,-0.9235,-0.9246,-0.9246,-0.9252,-0.9255,-0.9259,-0.9263,-0.926,-0.926,-0.926,-0.9271,-0.927,-0.9271,-0.9265,-0.9265,-0.9265,-0.927,0,-0.9178,-0.919,-0.9194,-0.9204,-0.921,-0.9214,-0.922,-0.9226,-0.923,-0.9236,-0.9241,-0.9248,-0.9249,-0.9252,-0.9256,-0.9262,-0.9265,-0.9261,-0.927,-0.927,-0.9267,-0.9272,-0.9271,-0.9275,-0.9271,-0.9271,-0.9271,0,-0.9186,-0.9193,-0.9202,-0.921,-0.9213,-0.9218,-0.9226,-0.9231,-0.9238,-0.9241,-0.9247,-0.925,-0.9257,-0.9257,-0.9266,-0.9263,-0.9267,-0.927,-0.9271,-0.9272,-0.9271,-0.9272,-0.9277,-0.9277,-0.9272,-0.9272,-0.9272,0,-0.9187,-0.9198,-0.9205,-0.9209,-0.9218,-0.9222,-0.9226,-0.9233,-0.9237,-0.9244,-0.9247,-0.9254,-0.9258,-0.9264,-0.9269,-0.9268,-0.9278,-0.9278,-0.9281,-0.9281,-0.9283,-0.9282,-0.9287,-0.9285,-0.9285,-0.9285,-0.9285,0,-0.9193,-0.9198,-0.9206,-0.921,-0.9217,-0.9222,-0.9229,-0.9233,-0.9239,-0.9244,-0.9248,-0.9253,-0.926,-0.9266,-0.927,-0.9277,-0.9279,-0.9282,-0.9283,-0.9281,-0.9281,-0.9284,-0.9284,-0.9285,-0.9285,-0.9285,-0.9285,0,-0.9195,-0.92,-0.9208,-0.9216,-0.9218,-0.9223,-0.923,-0.9234,-0.9238,-0.9245,-0.9247,-0.9254,-0.9261,-0.9267,-0.9276,-0.9279,-0.9287,-0.9288,-0.9284,-0.9285,-0.9287,-0.9286,-0.9293,-0.9295,-0.9292,-0.9292,-0.9292,0,-0.9198,-0.9202,-0.9211,-0.9214,-0.9218,-0.9224,-0.9228,-0.9234,-0.9238,-0.9246,-0.925,-0.9257,-0.9263,-0.9274,-0.928,-0.9287,-0.9288,-0.929,-0.929,-0.9288,-0.9288,-0.9288,-0.9288,-0.929,-0.929,-0.929,-0.929,0,-0.9203,-0.9205,-0.9211,-0.9217,-0.9222,-0.9227,-0.9233,-0.9236,-0.9242,-0.9247,-0.9254,-0.9259,-0.9268,-0.9275,-0.9283,-0.9287,-0.929,-0.9291,-0.9292,-0.929,-0.9287,-0.9289,-0.9284,-0.929,-0.929,-0.929,-0.929,-0.929,-0.9205,-0.9209,-0.9215,-0.9221,-0.9226,-0.9231,-0.9235,-0.924,-0.9246,-0.9254,-0.9257,-0.9264,-0.927,-0.9281,-0.9285,-0.9291,-0.9291,-0.9293,-0.9293,-0.9293,-0.9293,-0.9287,-0.9292,-0.9292,-0.9292,-0.9292,-0.9292,0,-0.921,-0.9214,-0.9219,-0.9227,-0.9232,-0.9233,-0.924,-0.9244,-0.925,-0.9255,-0.9261,-0.9269,-0.9276,-0.9282,-0.9289,-0.9293,-0.9294,-0.9294,-0.9294,-0.9295,-0.9292,-0.9291,-0.9293,-0.9293,-0.9293,-0.9293,-0.9293,-0.9293,-0.9213,-0.9219,-0.9222,-0.9231,-0.9235,-0.9241,-0.9245,-0.9249,-0.9254,-0.9263,-0.9268,-0.9272,-0.9278,-0.9286,-0.9292,-0.9293,-0.9296,-0.9296,-0.9298,-0.9295,-0.9295,-0.9295,-0.9293,-0.9296,-0.9296,-0.93,-0.93,-0.93]},{"header":{"parameterUnit":"m.s-1","parameterCategory":1,"la1":30.2991,"la2":30.254,"lo1":-89.0895,"lo2":-89.0444,"dy":0.0017,"dx":0.0017,"nx":28,"ny":28,"refTime":"2024-02-22T09:00:00:Z","depth":0,"parameterNumber":3,"parameterNumberName":"V-component_of_WINDS"},"data":[0,0,0,0,0,0,0,0,0,0,0,0,0,0,0,0,0,0,0,0,0,0,0,0,0,0,0,0,0,0,0,0,0,0,0,0,0,0,0,0,0,0,0,0,0,0,0,0,0,0,0,0,0,0,0,0,0,0,4.4047,4.4047,0,4.4054,4.4054,4.4054,4.4033,4.4033,4.4032,4.4031,4.4038,4.4039,4.404,0,0,0,0,0,0,0,0,0,0,0,0,0,4.4016,4.4016,4.4047,4.4047,4.4047,4.4054,4.4054,4.4054,4.4033,4.4033,4.4032,4.4031,4.4038,4.4039,4.404,0,0,0,0,0,0,0,0,0,0,0,0,0,4.4027,4.4017,4.4047,4.4038,4.4037,4.4054,4.4054,4.4054,4.4034,4.4033,4.4032,4.4031,4.4038,4.4039,4.404,4.4067,0,0,4.4044,4.4044,0,0,0,0,0,0,0,0,4.4026,4.4028,4.4039,4.4038,4.4037,4.4042,4.4046,4.4059,4.4034,4.4035,4.4031,4.403,4.404,4.4041,4.4045,4.4067,4.4068,4.4044,4.4045,4.4045,4.4046,0,0,0,0,0,0,0,4.4025,4.4028,4.405,4.4039,4.4038,4.4033,4.4034,4.4048,4.4043,4.4035,4.4033,4.4034,4.404,4.4044,4.4045,4.4068,4.4044,4.4045,4.4046,4.4046,4.4114,4.4116,0,0,0,0,0,0,4.4026,4.4027,4.405,4.405,4.4029,4.4035,4.4035,4.4041,4.4043,4.4042,4.4035,4.4033,4.4042,4.4043,4.4045,4.4078,4.4045,4.4046,4.4047,4.4113,4.4115,4.4116,0,0,0,0,0,0,4.4025,4.4028,4.4049,4.4038,4.4041,4.4036,4.4043,4.4042,4.4046,4.4043,4.4042,4.404,4.4041,4.4043,4.4062,4.4078,4.4047,4.4048,4.4112,4.4114,4.4115,4.4143,0,0,0,0,0,0,4.4025,4.4028,4.4038,4.4039,4.4041,4.4066,4.4044,4.4043,4.4048,4.4046,4.4047,4.4047,4.4041,4.406,4.4063,4.4079,4.4049,4.4111,4.4113,4.4115,4.4141,4.4146,4.415,0,0,0,0,0,4.4023,4.4045,4.4039,4.4041,4.4053,4.4067,4.4069,4.4061,4.4049,4.406,4.4058,4.4047,4.4075,4.4063,4.4066,4.4082,4.411,4.4112,4.4115,4.4139,4.4145,4.4149,0,0,0,0,0,0,4.4046,4.4045,4.4038,4.406,4.4064,4.4064,4.4076,4.4067,4.4075,4.4072,4.4063,4.4063,4.4084,4.4085,4.407,4.4109,4.4091,4.4094,4.4108,4.4113,4.4118,4.4118,4.405,0,0,0,0,0,4.4053,4.4065,4.4063,4.4083,4.4085,4.4081,4.4086,4.408,4.4084,4.4086,4.4085,4.4089,4.4099,4.4106,4.4115,4.414,4.4141,4.4153,4.4157,4.4161,4.4164,4.418,4.4185,4.4124,4.4124,4.4124,0,0,4.4069,4.407,4.4078,4.4088,4.409,4.4102,4.4082,4.4095,4.4105,4.4087,4.4106,4.4106,4.411,4.4132,4.4142,4.4133,4.4181,4.4164,4.4167,4.4168,4.4183,4.4189,4.4194,4.4126,4.4125,4.4125,0,0,4.4105,4.4106,4.4123,4.4126,4.413,4.4127,4.4132,4.4133,4.4132,4.4151,4.4138,4.4149,4.4166,4.417,4.4174,4.4212,4.4203,4.4215,4.4239,4.4254,4.4259,4.4263,4.4278,4.4284,4.4218,4.4219,4.4219,0,4.4124,4.4142,4.4133,4.4148,4.4154,4.4139,4.4157,4.416,4.4167,4.4171,4.4161,4.4183,4.4185,4.4209,4.4219,4.4222,4.4227,4.4216,4.4259,4.4263,4.4267,4.4281,4.4287,4.422,4.422,4.422,4.422,0,4.4166,4.4179,4.4192,4.42,4.4207,4.4223,4.4218,4.4226,4.422,4.4218,4.4237,4.4239,4.4248,4.4253,4.4247,4.4277,4.4272,4.426,4.4242,4.4274,4.4288,4.4293,4.4223,4.4222,4.4221,4.4221,0,0,4.4216,4.4219,4.4225,4.4229,4.4233,4.4243,4.4259,4.4269,4.4276,4.4281,4.4296,4.4311,4.4301,4.4306,4.4299,4.4312,4.4345,4.4299,4.4299,4.4309,4.4381,4.4391,4.4397,4.4338,4.4339,4.434,4.4381,0,4.4252,4.428,4.4274,4.4302,4.4315,4.4301,4.4315,4.432,4.4318,4.4329,4.4328,4.4339,4.4324,4.4327,4.4339,4.4338,4.4359,4.4335,4.4352,4.4353,4.4354,4.4404,4.4414,4.4453,4.4386,4.4387,4.4387,0,4.4298,4.4306,4.4336,4.4339,4.4344,4.4357,4.4367,4.4377,4.4382,4.438,4.4386,4.4378,4.4395,4.4375,4.4399,4.4383,4.439,4.439,4.4392,4.4394,4.4373,4.4409,4.4465,4.4471,4.4395,4.4395,4.4394,0,4.4334,4.4352,4.4373,4.4376,4.438,4.439,4.4392,4.4396,4.4403,4.4411,4.4415,4.4425,4.4431,4.4439,4.4434,4.442,4.4459,4.4439,4.4459,4.446,4.4469,4.4469,4.4528,4.4471,4.4471,4.447,4.447,0,4.4376,4.4395,4.4389,4.4402,4.4423,4.4416,4.4437,4.4437,4.4441,4.4454,4.4442,4.4455,4.4447,4.4459,4.4455,4.4476,4.4478,4.4478,4.4477,4.448,4.4481,4.4486,4.4484,4.4472,4.4472,4.4471,4.4471,0,4.442,4.4417,4.4439,4.4441,4.4442,4.4458,4.446,4.4472,4.447,4.4487,4.449,4.4487,4.4501,4.4497,4.4511,4.4508,4.4536,4.4531,4.4535,4.4534,4.4555,4.4554,4.4621,4.463,4.4565,4.4566,4.4566,0,4.4448,4.4463,4.4467,4.4475,4.4479,4.4491,4.4499,4.4492,4.45,4.4507,4.4519,4.4532,4.4542,4.4565,4.4564,4.4576,4.4571,4.4594,4.4573,4.4576,4.4574,4.4574,4.4576,4.4599,4.46,4.46,4.4601,0,4.4499,4.4497,4.4508,4.4519,4.4528,4.4537,4.4544,4.4551,4.4544,4.4554,4.4569,4.4576,4.4592,4.4605,4.4616,4.4618,4.4609,4.4607,4.4613,4.4617,4.4619,4.462,4.4548,4.4606,4.4605,4.4605,4.4605,4.4604,4.4537,4.455,4.4556,4.4569,4.4574,4.4581,4.4593,4.4593,4.4605,4.4618,4.4612,4.4629,4.4635,4.4648,4.4652,4.4665,4.4657,4.4664,4.4667,4.4669,4.4673,4.4616,4.4667,4.4667,4.4667,4.4667,4.4666,0,4.4589,4.4592,4.4605,4.4615,4.4626,4.4616,4.4624,4.4634,4.4649,4.4655,4.4665,4.4682,4.4695,4.4696,4.4709,4.4719,4.4716,4.4723,4.4723,4.4724,4.4679,4.4674,4.4726,4.4726,4.4726,4.4726,4.4726,4.4726,4.4618,4.464,4.4639,4.4664,4.4666,4.4683,4.4689,4.4696,4.4701,4.472,4.4731,4.4732,4.4736,4.4749,4.4761,4.4761,4.4767,4.4776,4.4775,4.4733,4.4727,4.4721,4.4717,4.4777,4.4777,4.4819,4.482,4.482]}]]